Powrót do katalogu

STARLINK-34220

AktywnyŁącznośćVLEO
NORAD 64930·PAYLOAD·🇺🇸 United States

Wystrzelony Jul 26, 2025 z Cape Canaveral Space Force Station

Loading…

Następne Przeloty (najbliższe 24 godziny)

TLE

ŚwieżeSource: CelesTrak SupGP

Epoka: Sep 15, 2026, 02:31 UTC

1 64930C 25157AC  26258.10534722 -.00061439  00000+0 -19758-2 0  2583
2 64930  53.1571 184.2251 0001294  80.9253  38.5715 15.31731603    12

Śledź STARLINK-34220 w czasie rzeczywistym z AllMySat

Download on the App Store